Retour au catalogue

KUIPER-00106

ActifCommunicationsLEO
NORAD 65144·PAYLOAD·🇺🇸 United States

Lancé Aug 11, 2025 depuis Cape Canaveral Space Force Station

Loading…

Prochains Passages (prochaines 24 heures)

TLE

FraisSource: CelesTrak SupGP

Époque: Sep 14, 2026, 12:28 UTC

1 65144C 25171N   26257.51957176 -.00002626  00000+0 -34390-3 0  2575
2 65144  51.9021  29.4191 0000631 102.4515 196.7755 14.79920495    15

Suivez KUIPER-00106 en temps réel avec AllMySat

Download on the App Store